Location: Blue Sky Observatory
(43.1153°N, 70.9036°W)
Time: 21:00:00
(UTC-04:00)

Amateur Radio Satellites - All Passes

Search period start: 24 August 2016 20:30
Search period end: 25 August 2016 20:30
Location: Blue Sky Observatory, 43.1153°N, 70.9036°W

Satellite Date Start Highest point End Downlink Frequencies (MHz)
Time Altitude Azimuth
ZACube-1 24 Aug 20:32:24 20:36:33 39° 71° (ENE) 20:40:40 437.345
DELFI C3 24 Aug 20:34:14 20:36:40 16° 65° (ENE) 20:39:05 145.870
AIST 1 24 Aug 20:45:29 20:49:53 67° 80° (E) 20:54:15
Cosmos 2491 24 Aug 20:45:34 20:52:15 24° 297° (WNW) 20:59:01 435.465 / 435.565
PRISM 24 Aug 20:46:15 20:49:32 22° 95° (E) 20:52:48 437.425
SEEDS 24 Aug 20:53:45 20:57:19 27° 265° (W) 21:00:54 437.485
M-CUBED/EXP-1 PRIME 24 Aug 21:00:17 21:02:15 13° 54° (NE) 21:04:14 437.505
CINEMA 3 24 Aug 21:01:10 21:04:28 18° 270° (W) 21:07:48 145.822/145.860
STRAND 1 24 Aug 21:03:52 21:08:25 34° 293° (WNW) 21:12:57 437.568
CANX-2 24 Aug 21:10:18 21:12:01 12° 270° (W) 21:13:44 2200.000
BEESAT 2 24 Aug 21:16:14 21:18:09 13° 251° (WSW) 21:20:04 435.950
CUTE 1.7 + AOD 2 24 Aug 21:17:17 21:18:50 12° 271° (W) 21:20:25 437.475
AIST 2 24 Aug 21:18:44 21:22:33 33° 48° (NE) 21:26:22 435.215
GONETS M04 24 Aug 21:25:31 21:29:56 14° 55° (NE) 21:34:18
AAUSAT CUBESAT 2 24 Aug 21:35:54 21:38:41 17° 268° (W) 21:41:27 437.432
COMPASS 1 24 Aug 21:41:39 21:43:24 12° 270° (W) 21:45:10 437.405
CUBEBUG 2 24 Aug 21:42:15 21:45:38 19° 268° (W) 21:49:00 437.445
Oscar 11 24 Aug 21:46:38 21:50:31 33° 263° (W) 21:54:27 145.826/435.025
UWE-3 24 Aug 21:46:46 21:50:30 24° 266° (W) 21:54:12 435.000/436.395/437.385
HUMSAT D 24 Aug 21:49:03 21:53:08 53° 74° (ENE) 21:57:11 437.325/437.525
FUNcube-1 24 Aug 21:49:10 21:53:16 35° 263° (W) 21:57:18 145.935
HO-68 24 Aug 21:52:04 21:55:14 13° 273° (W) 21:58:25 435.675
DELFI C3 24 Aug 22:07:26 22:11:10 42° 261° (W) 22:14:56 145.870
UNISAT 6 24 Aug 22:08:31 22:11:33 18° 92° (E) 22:14:31 437.425
ZACube-1 24 Aug 22:09:33 22:12:57 21° 267° (W) 22:16:19 437.345
PCSat 24 Aug 22:12:25 22:17:47 61° 244° (WSW) 22:23:06 145.827
PRISM 24 Aug 22:21:08 22:24:52 32° 291° (WNW) 22:28:37 437.425
AIST 1 24 Aug 22:25:37 22:26:51 11° 277° (W) 22:28:05
AUBIESAT-1 24 Aug 22:28:49 22:33:23 68° 69° (ENE) 22:38:01 437.475
M-CUBED/EXP-1 PRIME 24 Aug 22:31:22 22:36:00 87° 76° (ENE) 22:40:46 437.505
ANTELSAT 24 Aug 22:44:48 22:48:57 44° 99° (E) 22:53:01 437.575/2403.000
VELOX 1 24 Aug 22:45:17 22:48:43 22° 65° (ENE) 22:52:09 145.980
O/OREOS (USA 219) 24 Aug 22:48:56 22:50:44 12° 48° (NE) 22:52:33 437.305
Cosmos 2499 24 Aug 22:53:36 22:59:52 32° 70° (ENE) 23:06:04 435.465 / 435.565
CUBEBUG 1 24 Aug 22:55:42 22:59:37 33° 69° (ENE) 23:03:34 437.445
AIST 2 24 Aug 22:57:23 23:00:56 27° 246° (WSW) 23:04:28 435.215
ESTCUBE 1 24 Aug 23:10:23 23:14:49 71° 74° (ENE) 23:19:19 437.505/2401.250
DX 1 24 Aug 23:13:40 23:17:26 30° 68° (ENE) 23:21:15 434.975-435.025
TIGRISAT 24 Aug 23:16:39 23:20:59 85° 288° (WNW) 23:25:14 435.000
CUSAT 1 24 Aug 23:16:54 23:18:43 16° 87° (E) 23:20:44 437.405
GONETS M04 24 Aug 23:19:54 23:28:45 67° 79° (ENE) 23:37:31
QB50P1 24 Aug 23:23:40 23:26:31 17° 92° (E) 23:29:20 145.935-145.965
HUMSAT D 24 Aug 23:27:01 23:29:04 13° 269° (W) 23:31:06 437.325/437.525
SPROUT 24 Aug 23:29:14 23:33:01 30° 69° (ENE) 23:36:48 437.525
AISAT 24 Aug 23:32:40 23:37:05 71° 75° (ENE) 23:41:33 437.250
POPSAT HIP 1 24 Aug 23:33:00 23:36:17 21° 94° (E) 23:39:32 437.405
UNISAT 6 24 Aug 23:44:24 23:48:27 40° 289° (WNW) 23:52:26 437.425
50 SAT 24 Aug 23:54:13 23:57:46 63° 259° (W) 00:01:20 437.505
UKube-1 24 Aug 23:59:58 00:04:16 72° 74° (ENE) 00:08:36 .
TISAT 1 25 Aug 00:01:46 00:04:27 17° 64° (ENE) 00:07:08 437.305
QB50P2 25 Aug 00:01:55 00:06:03 48° 100° (E) 00:10:07 145.880/145.840
DUCHIFAT 1 25 Aug 00:04:13 00:08:14 42° 99° (E) 00:12:11 145.980
POLYITAN 1 25 Aug 00:04:28 00:08:34 49° 100° (E) 00:12:38 437.675
AUBIESAT-1 25 Aug 00:05:49 00:08:13 14° 265° (W) 00:10:39 437.475
M-CUBED/EXP-1 PRIME 25 Aug 00:09:51 00:11:05 11° 267° (W) 00:12:19 437.505
NANOSAT C BR1 25 Aug 00:16:14 00:20:26 62° 102° (ESE) 00:24:35 145.865
VELOX 1 25 Aug 00:20:49 00:24:56 37° 262° (W) 00:29:06 145.980
ANTELSAT 25 Aug 00:22:26 00:25:19 18° 296° (WNW) 00:28:11 437.575/2403.000
SO-50 25 Aug 00:23:23 00:28:08 55° 119° (ESE) 00:32:51 436.795
O/OREOS (USA 219) 25 Aug 00:26:15 00:30:52 87° 68° (ENE) 00:35:28 437.305
JAS-2 25 Aug 00:26:21 00:32:42 45° 99° (E) 00:39:44 435.910
CUBEBUG 1 25 Aug 00:32:21 00:35:56 24° 266° (W) 00:39:32 437.445
Cosmos 2499 25 Aug 00:46:30 00:53:09 45° 270° (W) 00:59:49 435.465 / 435.565
DX 1 25 Aug 00:49:55 00:53:36 26° 264° (W) 00:57:20 434.975-435.025
ESTCUBE 1 25 Aug 00:50:39 00:52:08 11° 271° (W) 00:53:36 437.505/2401.250
QB50P1 25 Aug 00:58:29 01:02:29 41° 289° (WNW) 01:06:26 145.935-145.965
CUSAT 1 25 Aug 00:58:41 01:00:36 16° 294° (WNW) 01:02:46 437.405
SPROUT 25 Aug 01:05:23 01:08:57 25° 265° (W) 01:12:32 437.525
POPSAT HIP 1 25 Aug 01:08:19 01:12:08 33° 290° (WNW) 01:15:55 437.405
SWISSCUBE 25 Aug 01:10:47 01:14:22 22° 64° (ENE) 01:17:57 437.505
RS-15 25 Aug 01:11:22 01:21:53 44° 108° (ESE) 01:32:53 29.354- 29.394
AISAT 25 Aug 01:12:35 01:14:02 11° 271° (W) 01:15:31 437.250
BUGSAT 1 25 Aug 01:13:08 01:17:19 75° 286° (WNW) 01:21:25 437.445
GONETS M04 25 Aug 01:17:45 01:24:49 28° 279° (W) 01:31:54
Oscar 19 25 Aug 01:21:39 01:25:53 25° 94° (E) 01:30:06 437.125/150
DANDE 25 Aug 01:24:06 01:26:17 24° 286° (WNW) 01:28:32 436.750
BEESAT 25 Aug 01:27:46 01:31:47 28° 66° (ENE) 01:35:49 436.000
TISAT 1 25 Aug 01:35:36 01:39:43 49° 260° (W) 01:43:52 437.305
QB50P2 25 Aug 01:38:48 01:41:28 16° 296° (WNW) 01:44:06 145.880/145.840
UKube-1 25 Aug 01:39:49 01:40:47 11° 271° (W) 01:41:45 .
DUCHIFAT 1 25 Aug 01:40:44 01:43:36 18° 295° (WNW) 01:46:28 145.980
POLYITAN 1 25 Aug 01:41:23 01:43:59 16° 297° (WNW) 01:46:34 437.675
NANOSAT C BR1 25 Aug 01:53:40 01:55:38 13° 298° (WNW) 01:57:36 145.865
SO-50 25 Aug 02:04:57 02:08:55 24° 318° (NW) 02:12:52 436.795
Gurwin Techsat 1B 25 Aug 02:05:46 02:10:23 29° 95° (E) 02:14:59 435.225
JAS-2 25 Aug 02:11:43 02:17:36 37° 294° (WNW) 02:24:07 435.910
ITUPSAT 1 25 Aug 02:12:08 02:16:53 74° 74° (ENE) 02:21:39 437.325
MOZHAYETS 4 25 Aug 02:12:37 02:14:07 12° 60° (ENE) 02:15:38
KKS-1 25 Aug 02:29:19 02:31:38 14° 61° (ENE) 02:33:57 437.445
ITAMSAT 1 25 Aug 02:29:49 02:32:35 14° 90° (E) 02:35:19 435.822/435.867
PHONESAT 2.4 25 Aug 02:34:04 02:34:51 11° 150° (SSE) 02:35:39 2401.200-2431.200
SWISSCUBE 25 Aug 02:47:20 02:51:52 44° 261° (W) 02:56:26 437.505
Oscar 19 25 Aug 03:00:27 03:05:22 43° 291° (WNW) 03:10:15 437.125/150
BEESAT 25 Aug 03:05:10 03:09:28 33° 263° (W) 03:13:46 436.000
STARS 25 Aug 03:13:02 03:16:10 19° 64° (ENE) 03:19:20 437.465
RS-15 25 Aug 03:22:24 03:33:54 62° 312° (NW) 03:46:04 29.354- 29.394
Gurwin Techsat 1B 25 Aug 03:45:31 03:50:23 37° 292° (WNW) 03:55:14 435.225
MOZHAYETS 4 25 Aug 03:46:02 03:50:37 84° 258° (WSW) 03:55:13
ITUPSAT 1 25 Aug 03:53:19 03:55:15 12° 271° (W) 03:57:11 437.325
KKS-1 25 Aug 04:03:12 04:07:39 67° 257° (WSW) 04:12:09 437.445
ITAMSAT 1 25 Aug 04:07:24 04:12:34 72° 287° (WNW) 04:17:43 435.822/435.867
PHONESAT 2.4 25 Aug 04:07:55 04:10:41 34° 165° (SSE) 04:13:26 2401.200-2431.200
AO-7 25 Aug 04:08:13 04:16:17 51° 102° (ESE) 04:24:16 29.400- 29.500
STARS 25 Aug 04:47:57 04:52:12 44° 261° (W) 04:56:29 437.465
Cosmos 2491 25 Aug 04:55:00 05:03:16 42° 72° (ENE) 05:11:30 435.465 / 435.565
CUBESAT XI-V 25 Aug 04:57:33 05:02:07 70° 75° (ENE) 05:06:44 437.345
HORYU 2 25 Aug 05:16:01 05:19:58 31° 97° (E) 05:23:52 437.375
RS-15 25 Aug 05:39:35 05:49:35 29° 343° (NNW) 05:59:53 29.354- 29.394
PHONESAT 2.4 25 Aug 05:43:54 05:46:49 50° 183° (S) 05:49:44 2401.200-2431.200
ITAMSAT 1 25 Aug 05:50:14 05:51:07 10° 305° (NW) 05:51:59 435.822/435.867
GOMX 1 25 Aug 05:52:21 05:55:51 17° 88° (E) 05:59:16 467.674
BRITE-PL 25 Aug 05:59:11 06:04:37 43° 97° (E) 06:09:57 437.365/2234.400
AO-85 25 Aug 06:01:15 06:06:25 53° 118° (ESE) 06:11:20 145.980
AO-7 25 Aug 06:01:19 06:08:50 40° 301° (WNW) 06:16:19 29.400- 29.500
YUBILEINY 25 Aug 06:11:12 06:19:31 48° 88° (E) 06:27:51 435.215
Cubesat XI-IV 25 Aug 06:12:54 06:17:09 24° 94° (E) 06:21:23 437.490
DOVE 4 25 Aug 06:15:51 06:17:35 12° 86° (E) 06:19:18 437.250
CUTE-I 25 Aug 06:25:27 06:30:09 31° 96° (E) 06:34:49 437.470
Cosmos 2504 25 Aug 06:26:49 06:32:39 21° 80° (E) 06:38:15 435.465 / 435.565
NOAA 15 25 Aug 06:36:27 06:41:37 50° 100° (E) 06:46:45 137.62
CUBESAT XI-V 25 Aug 06:38:10 06:40:00 12° 271° (W) 06:41:50 437.345
NOAA 18 25 Aug 06:39:44 06:44:47 37° 98° (E) 06:49:48 137.9125
STRAND 1 25 Aug 06:41:23 06:46:18 49° 70° (ENE) 06:51:13 437.568
Cosmos 2491 25 Aug 06:51:55 07:00:09 46° 272° (W) 07:08:23 435.465 / 435.565
HORYU 2 25 Aug 06:52:44 06:56:24 26° 294° (WNW) 07:00:03 437.375
LilacSat-2 25 Aug 07:12:12 07:15:59 78° 282° (WNW) 07:19:44 437.200
SO-50 25 Aug 07:15:07 07:17:12 13° 32° (NNE) 07:19:17 436.795
CINEMA 3 25 Aug 07:18:22 07:20:11 12° 88° (E) 07:21:58 145.822/145.860
PHONESAT 2.4 25 Aug 07:20:18 07:22:54 27° 198° (SSW) 07:25:30 2401.200-2431.200
HO-68 25 Aug 07:27:13 07:32:10 20° 90° (E) 07:37:04 435.675
GOMX 1 25 Aug 07:28:58 07:34:25 66° 286° (WNW) 07:39:38 467.674
PRISM 25 Aug 07:37:01 07:39:53 19° 65° (ENE) 07:42:46 437.425
BRITE-PL 25 Aug 07:37:58 07:42:51 30° 294° (WNW) 07:47:43 437.365/2234.400
AO-85 25 Aug 07:42:44 07:47:09 27° 316° (NW) 07:51:21 145.980
DOVE 4 25 Aug 07:50:49 07:56:00 84° 286° (WNW) 08:00:53 437.250
Cubesat XI-IV 25 Aug 07:52:22 07:57:26 46° 291° (WNW) 08:02:29 437.490
RS-15 25 Aug 07:57:00 08:07:21 30° 18° (NNE) 08:17:43 29.354- 29.394
CUTE-I 25 Aug 08:05:24 08:10:12 35° 293° (WNW) 08:14:59 437.470
YUBILEINY 25 Aug 08:08:19 08:16:27 40° 289° (WNW) 08:24:38 435.215
Cosmos 2504 25 Aug 08:16:36 08:25:10 81° 278° (W) 08:33:11 435.465 / 435.565
NOAA 15 25 Aug 08:16:56 08:21:03 24° 297° (WNW) 08:25:11 137.62
NOAA 18 25 Aug 08:20:33 08:25:21 32° 295° (WNW) 08:30:07 137.9125
STRAND 1 25 Aug 08:21:55 08:25:44 21° 267° (W) 08:29:33 437.568
SEEDS 25 Aug 08:35:51 08:39:51 43° 98° (E) 08:43:52 437.485
TIGRISAT 25 Aug 08:42:55 08:44:12 11° 60° (ENE) 08:45:29 435.000
CANX-2 25 Aug 08:51:13 08:55:27 77° 284° (WNW) 08:59:41 2200.000
CINEMA 3 25 Aug 08:53:16 08:57:52 67° 286° (WNW) 09:02:14 145.822/145.860
SO-50 25 Aug 08:54:03 08:58:39 62° 53° (NE) 09:03:07 436.795
CUTE 1.7 + AOD 2 25 Aug 08:57:56 09:02:10 75° 284° (WNW) 09:06:23 437.475
UNISAT 6 25 Aug 09:08:07 09:11:33 21° 65° (ENE) 09:14:56 437.425
GOMX 1 25 Aug 09:10:33 09:11:23 10° 305° (NW) 09:12:13 467.674
PRISM 25 Aug 09:11:06 09:14:55 38° 261° (W) 09:18:47 437.425
HO-68 25 Aug 09:13:25 09:20:37 80° 289° (WNW) 09:27:46 435.675
AAUSAT CUBESAT 2 25 Aug 09:15:22 09:19:31 66° 101° (ESE) 09:23:39 437.432
AIST 1 25 Aug 09:15:44 09:19:43 37° 91° (E) 09:23:45
COMPASS 1 25 Aug 09:20:29 09:24:40 85° 283° (WNW) 09:28:51 437.405
ISS 25 Aug 09:29:42 09:32:38 30° 138° (SE) 09:35:34 145.825
CUBEBUG 2 25 Aug 09:30:44 09:35:02 89° 93° (E) 09:39:13 437.445
DOVE 4 25 Aug 09:30:56 09:32:46 12° 303° (WNW) 09:34:35 437.250
Oscar 11 25 Aug 09:32:23 09:36:26 39° 98° (E) 09:40:28 145.826/435.025
UWE-3 25 Aug 09:34:30 09:38:43 64° 101° (E) 09:42:50 435.000/436.395/437.385
FUNcube-1 25 Aug 09:35:58 09:39:52 38° 98° (E) 09:43:43 145.935
ANTELSAT 25 Aug 09:44:02 09:48:27 46° 71° (ENE) 09:52:48 437.575/2403.000
DELFI C3 25 Aug 09:44:15 09:47:21 21° 94° (E) 09:50:27 145.870
CUSAT 1 25 Aug 09:44:18 09:49:36 30° 72° (ENE) 09:55:53 437.405
BEESAT 3 25 Aug 09:53:56 09:57:11 25° 114° (ESE) 10:00:28 437.485
ZACube-1 25 Aug 09:55:38 09:59:49 71° 101° (ESE) 10:03:56 437.345
RS-15 25 Aug 10:10:38 10:22:57 64° 48° (NE) 10:35:04 29.354- 29.394
SEEDS 25 Aug 10:12:25 10:15:14 18° 295° (WNW) 10:18:05 437.485
DANDE 25 Aug 10:14:40 10:18:13 19° 72° (ENE) 10:22:24 436.750
Cosmos 2504 25 Aug 10:14:42 10:19:46 17° 299° (WNW) 10:24:40 435.465 / 435.565
TIGRISAT 25 Aug 10:15:34 10:20:12 88° 254° (WSW) 10:24:47 435.000
QB50P1 25 Aug 10:17:26 10:20:05 16° 64° (ENE) 10:22:44 145.935-145.965
POPSAT HIP 1 25 Aug 10:26:39 10:29:45 20° 65° (ENE) 10:32:50 437.405
GONETS M04 25 Aug 10:31:10 10:35:10 14° 73° (ENE) 10:39:10
SO-50 25 Aug 10:35:53 10:38:35 16° 251° (WSW) 10:41:15 436.795
JAS-2 25 Aug 10:42:44 10:46:06 18° 58° (ENE) 10:49:35 435.910
UNISAT 6 25 Aug 10:43:34 10:47:59 43° 262° (W) 10:52:20 437.425
AAUSAT CUBESAT 2 25 Aug 10:52:46 10:54:27 12° 298° (WNW) 10:56:08 437.432
AIST 1 25 Aug 10:54:15 10:57:27 20° 289° (WNW) 11:00:42
QB50P2 25 Aug 10:55:12 10:59:14 41° 71° (ENE) 11:03:15 145.880/145.840
DUCHIFAT 1 25 Aug 10:56:49 11:00:42 35° 70° (ENE) 11:04:36 145.980
POLYITAN 1 25 Aug 10:57:43 11:01:46 42° 71° (ENE) 11:05:49 437.675
HO-68 25 Aug 11:02:54 11:07:15 17° 308° (NW) 11:11:35 435.675
ESTCUBE 1 25 Aug 11:03:23 11:05:46 14° 90° (E) 11:08:09 437.505/2401.250
ISS 25 Aug 11:05:54 11:09:02 40° 335° (NNW) 11:12:10 145.825
BEESAT 2 25 Aug 11:06:45 11:10:41 82° 122° (ESE) 11:14:41 435.950
HUMSAT D 25 Aug 11:06:46 11:10:51 90° 2° (N) 11:14:56 437.325/437.525
NANOSAT C BR1 25 Aug 11:08:55 11:13:03 51° 73° (ENE) 11:17:13 145.865
Oscar 11 25 Aug 11:09:09 11:12:18 20° 294° (WNW) 11:15:27 145.826/435.025
UWE-3 25 Aug 11:12:51 11:14:38 12° 299° (WNW) 11:16:24 435.000/436.395/437.385
FUNcube-1 25 Aug 11:12:55 11:15:50 19° 295° (WNW) 11:18:44 145.935
PCSat 25 Aug 11:14:28 11:17:19 15° 103° (ESE) 11:20:10 145.827
DELFI C3 25 Aug 11:18:42 11:22:14 30° 290° (WNW) 11:25:45 145.870
ANTELSAT 25 Aug 11:22:07 11:25:21 19° 267° (W) 11:28:34 437.575/2403.000
AISAT 25 Aug 11:23:45 11:25:42 13° 90° (E) 11:27:37 437.250
CUSAT 1 25 Aug 11:25:48 11:31:42 51° 265° (W) 11:38:53 437.405
BEESAT 3 25 Aug 11:31:14 11:34:45 31° 312° (NW) 11:38:18 437.485
Cosmos 2499 25 Aug 11:31:41 11:38:15 27° 84° (E) 11:44:26 435.465 / 435.565
ZACube-1 25 Aug 11:34:11 11:35:30 11° 299° (WNW) 11:36:50 437.345
AUBIESAT-1 25 Aug 11:41:46 11:45:42 39° 103° (ESE) 11:49:19 437.475
M-CUBED/EXP-1 PRIME 25 Aug 11:44:51 11:49:03 54° 105° (ESE) 11:52:52 437.505
UKube-1 25 Aug 11:48:37 11:49:45 11° 89° (E) 11:50:53 .
QB50P1 25 Aug 11:51:18 11:55:28 50° 260° (W) 11:59:39 145.935-145.965
DANDE 25 Aug 11:56:03 12:01:02 64° 262° (W) 12:07:38 436.750
POPSAT HIP 1 25 Aug 12:01:13 12:05:15 40° 262° (W) 12:09:18 437.405
BUGSAT 1 25 Aug 12:03:08 12:07:23 83° 79° (ENE) 12:11:40 437.445
VELOX 1 25 Aug 12:09:39 12:13:48 36° 98° (E) 12:17:55 145.980
CUBEBUG 1 25 Aug 12:18:52 12:23:15 57° 100° (E) 12:27:36 437.445
GONETS M04 25 Aug 12:21:37 12:30:17 73° 94° (E) 12:39:05
RS-15 25 Aug 12:23:46 12:35:01 44° 252° (WSW) 12:46:04 29.354- 29.394
JAS-2 25 Aug 12:25:29 12:30:36 64° 259° (WSW) 12:36:01 435.910
QB50P2 25 Aug 12:32:13 12:35:12 18° 267° (W) 12:38:12 145.880/145.840
DUCHIFAT 1 25 Aug 12:33:15 12:36:29 21° 266° (W) 12:39:43 145.980
POLYITAN 1 25 Aug 12:34:47 12:37:44 18° 267° (W) 12:40:42 437.675
DX 1 25 Aug 12:36:15 12:40:31 47° 100° (E) 12:44:43 434.975-435.025
ESTCUBE 1 25 Aug 12:38:28 12:42:57 60° 287° (WNW) 12:47:25 437.505/2401.250
Oscar 19 25 Aug 12:39:13 12:43:58 39° 68° (ENE) 12:48:47 437.125/150
ISS 25 Aug 12:43:43 12:46:08 19° 355° (N) 12:48:33 145.825
NANOSAT C BR1 25 Aug 12:46:42 12:49:05 15° 269° (W) 12:51:27 145.865
BEESAT 2 25 Aug 12:46:54 12:49:04 14° 322° (NW) 12:51:13 435.950
SPROUT 25 Aug 12:49:24 12:53:35 50° 100° (E) 12:57:44 437.525
PCSat 25 Aug 12:54:33 12:59:58 81° 300° (WNW) 13:05:27 145.827
AO-85 25 Aug 12:54:33 12:55:21 10° 29° (NNE) 12:56:08 145.980
50 SAT 25 Aug 12:54:50 12:58:25 59° 286° (WNW) 13:02:01 437.505
AIST 2 25 Aug 12:54:59 12:58:54 47° 118° (ESE) 13:02:54 435.215
AISAT 25 Aug 12:58:09 13:02:37 65° 286° (WNW) 13:07:01 437.250
AUBIESAT-1 25 Aug 13:16:51 13:19:50 19° 302° (WNW) 13:22:40 437.475
TISAT 1 25 Aug 13:18:57 13:22:18 23° 94° (E) 13:25:38 437.305
AO-7 25 Aug 13:19:24 13:24:45 19° 47° (NE) 13:30:05 29.400- 29.500
M-CUBED/EXP-1 PRIME 25 Aug 13:20:29 13:23:03 16° 304° (NW) 13:25:31 437.505
UKube-1 25 Aug 13:21:56 13:26:16 71° 286° (WNW) 13:30:34 .
Cosmos 2499 25 Aug 13:22:42 13:30:51 62° 282° (WNW) 13:38:26 435.465 / 435.565
Gurwin Techsat 1B 25 Aug 13:27:36 13:32:44 51° 70° (ENE) 13:37:53 435.225
VELOX 1 25 Aug 13:46:32 13:50:03 23° 294° (WNW) 13:53:34 145.980
ITAMSAT 1 25 Aug 13:48:09 13:52:22 26° 64° (ENE) 13:56:37 435.822/435.867
CUBEBUG 1 25 Aug 13:56:26 13:59:05 16° 297° (WNW) 14:01:41 437.445
ITUPSAT 1 25 Aug 14:12:43 14:15:51 17° 92° (E) 14:18:59 437.325
DX 1 25 Aug 14:13:21 14:16:20 18° 296° (WNW) 14:19:18 434.975-435.025
Oscar 19 25 Aug 14:19:04 14:23:23 27° 265° (W) 14:27:45 437.125/150
ISS 25 Aug 14:20:39 14:23:24 24° 15° (NNE) 14:26:09 145.825
GONETS M04 25 Aug 14:20:59 14:28:00 26° 296° (WNW) 14:35:06
SPROUT 25 Aug 14:26:29 14:29:08 16° 297° (WNW) 14:31:46 437.525
AO-85 25 Aug 14:32:40 14:36:55 53° 52° (NE) 14:40:51 145.980
AIST 2 25 Aug 14:34:26 14:37:37 21° 317° (NW) 14:40:50 435.215
O/OREOS (USA 219) 25 Aug 14:39:17 14:43:46 86° 113° (ESE) 14:48:18 437.305
PCSat 25 Aug 14:40:51 14:44:15 17° 322° (NW) 14:47:42 145.827
SWISSCUBE 25 Aug 14:46:15 14:50:47 42° 99° (E) 14:55:16 437.505
TISAT 1 25 Aug 14:54:15 14:57:59 32° 291° (WNW) 15:01:42 437.305
BEESAT 25 Aug 15:03:35 15:08:17 56° 101° (E) 15:12:58 436.000
AO-7 25 Aug 15:07:51 15:16:10 74° 68° (ENE) 15:24:30 29.400- 29.500
Gurwin Techsat 1B 25 Aug 15:08:59 15:12:58 21° 268° (W) 15:16:59 435.225
Cosmos 2499 25 Aug 15:23:08 15:25:35 12° 303° (WNW) 15:28:01 435.465 / 435.565
ITAMSAT 1 25 Aug 15:26:42 15:31:36 42° 261° (W) 15:36:32 435.822/435.867
MOZHAYETS 4 25 Aug 15:40:43 15:44:12 21° 93° (E) 15:47:39
ITUPSAT 1 25 Aug 15:49:22 15:54:01 53° 288° (WNW) 15:58:38 437.325
KKS-1 25 Aug 15:53:49 15:57:15 21° 94° (E) 16:00:40 437.445
ISS 25 Aug 15:56:54 16:00:12 86° 213° (SSW) 16:03:29 145.825
AO-85 25 Aug 16:14:26 16:16:48 15° 251° (WSW) 16:19:07 145.980
HORYU 2 25 Aug 16:14:48 16:18:49 33° 69° (ENE) 16:22:50 437.375
YUBILEINY 25 Aug 16:20:25 16:27:22 25° 64° (ENE) 16:34:14 435.215
NOAA 15 25 Aug 16:21:27 16:23:44 13° 57° (ENE) 16:26:02 137.62
O/OREOS (USA 219) 25 Aug 16:21:54 16:23:51 13° 311° (NW) 16:25:49 437.305
SWISSCUBE 25 Aug 16:24:37 16:28:18 23° 296° (WNW) 16:31:59 437.505
NOAA 18 25 Aug 16:30:25 16:32:37 12° 55° (NE) 16:34:47 137.9125
STARS 25 Aug 16:36:27 16:40:19 29° 96° (E) 16:44:08 437.465
BEESAT 25 Aug 16:42:29 16:45:38 18° 298° (WNW) 16:48:45 436.000
CUBESAT XI-V 25 Aug 16:54:10 16:57:10 17° 91° (E) 17:00:09 437.345
GOMX 1 25 Aug 17:01:06 17:04:46 20° 62° (ENE) 17:08:33 467.674
AO-7 25 Aug 17:03:05 17:09:38 25° 267° (W) 17:16:14 29.400- 29.500
BRITE-PL 25 Aug 17:10:52 17:15:26 47° 70° (ENE) 17:20:25 437.365/2234.400
MOZHAYETS 4 25 Aug 17:17:14 17:21:30 40° 290° (WNW) 17:25:45
DOVE 4 25 Aug 17:21:21 17:24:18 15° 60° (ENE) 17:27:18 437.250
KKS-1 25 Aug 17:29:48 17:33:56 38° 291° (WNW) 17:38:02 437.445
ISS 25 Aug 17:35:16 17:36:11 11° 230° (SW) 17:37:05 145.825
Cubesat XI-IV 25 Aug 17:35:35 17:40:36 43° 69° (ENE) 17:45:39 437.490
CUTE-I 25 Aug 17:48:02 17:53:15 56° 71° (ENE) 17:58:28 437.470
BEESAT 2 25 Aug 17:48:15 17:49:11 11° 34° (NE) 17:50:08 435.950
HORYU 2 25 Aug 17:51:45 17:55:24 24° 265° (W) 17:59:04 437.375
LilacSat-2 25 Aug 17:54:40 17:58:27 57° 74° (ENE) 18:02:13 437.200
NOAA 15 25 Aug 17:57:27 18:02:42 86° 74° (ENE) 18:08:00 137.62
Cosmos 2491 25 Aug 17:57:27 18:05:34 46° 87° (E) 18:13:43 435.465 / 435.565
HO-68 25 Aug 17:58:12 18:02:48 19° 53° (NE) 18:07:25 435.675
NOAA 18 25 Aug 18:06:49 18:12:21 77° 73° (ENE) 18:17:53 137.9125
Cosmos 2504 25 Aug 18:08:44 18:15:23 37° 71° (ENE) 18:21:53 435.465 / 435.565
BEESAT 3 25 Aug 18:09:48 18:13:05 24° 45° (NE) 18:16:20 437.485
STARS 25 Aug 18:12:51 18:16:35 27° 293° (WNW) 18:20:17 437.465
YUBILEINY 25 Aug 18:16:20 18:25:07 76° 266° (W) 18:33:47 435.215
CINEMA 3 25 Aug 18:20:06 18:23:06 16° 62° (ENE) 18:26:07 145.822/145.860
CUBESAT XI-V 25 Aug 18:30:16 18:34:52 54° 287° (WNW) 18:39:26 437.345
GOMX 1 25 Aug 18:37:23 18:42:19 58° 261° (W) 18:47:34 467.674
BRITE-PL 25 Aug 18:50:39 18:54:14 21° 270° (W) 18:58:02 437.365/2234.400
STRAND 1 25 Aug 18:52:12 18:55:07 15° 90° (E) 18:58:01 437.568
DOVE 4 25 Aug 18:56:09 19:01:16 79° 258° (WSW) 19:06:36 437.250
CUBEBUG 2 25 Aug 18:57:36 18:57:42 10° 59° (ENE) 18:57:50 437.445
Cubesat XI-IV 25 Aug 19:16:27 19:20:50 26° 266° (W) 19:25:14 437.490
AIST 1 25 Aug 19:23:34 19:24:57 11° 66° (ENE) 19:26:19
BEESAT 2 25 Aug 19:23:48 19:27:49 65° 54° (NE) 19:31:47 435.950
SEEDS 25 Aug 19:28:28 19:32:12 33° 70° (ENE) 19:35:57 437.485
CUTE-I 25 Aug 19:29:51 19:33:39 20° 268° (W) 19:37:27 437.470
LilacSat-2 25 Aug 19:32:10 19:33:06 11° 270° (W) 19:34:02 437.200
NOAA 15 25 Aug 19:41:15 19:43:09 12° 272° (W) 19:45:04 137.62
HO-68 25 Aug 19:42:18 19:49:30 84° 72° (ENE) 19:56:45 435.675
CANX-2 25 Aug 19:44:31 19:48:43 83° 79° (E) 19:52:57 2200.000
BEESAT 3 25 Aug 19:47:10 19:50:50 36° 243° (WSW) 19:54:28 437.485
NOAA 18 25 Aug 19:50:32 19:53:35 15° 270° (W) 19:56:39 137.9125
CUTE 1.7 + AOD 2 25 Aug 19:51:06 19:55:19 85° 76° (ENE) 19:59:33 437.475
Cosmos 2491 25 Aug 19:54:21 20:02:27 42° 288° (WNW) 20:10:39 435.465 / 435.565
CINEMA 3 25 Aug 19:54:40 19:59:40 70° 259° (W) 20:04:41 145.822/145.860
PCSat 25 Aug 19:59:01 20:02:54 19° 41° (NE) 20:06:44 145.827
Cosmos 2504 25 Aug 20:02:07 20:08:47 41° 272° (W) 20:15:20 435.465 / 435.565
AAUSAT CUBESAT 2 25 Aug 20:06:17 20:10:14 47° 73° (ENE) 20:14:12 437.432
COMPASS 1 25 Aug 20:11:47 20:15:52 71° 76° (ENE) 20:19:59 437.405
YUBILEINY 25 Aug 20:16:02 20:20:17 15° 286° (WNW) 20:24:31 435.215
